QPF
0.00 0.01 0.01 0.02 0.02 0.03 0.06 0.09 0.10 0.09 0.09 0.07 0.06 0.05 0.04 0.02 0.02 0.03 0.02 0.02 0.06 0.10 0.12 0.13 0.12 0.08 0.06 0.05 0.05 0.06 0.07 0.06 0.05 0.03 0.03 0.02 0.02 0.02 0.01 0.01 0.01 0.01 0.01
0.00 0.00 0.01 0.01 0.01 0.02 0.04 0.06 0.06 0.06 0.07 0.06 0.06 0.05 0.05 0.04 0.03 0.04 0.03 0.03 0.05 0.07 0.09 0.13 0.15 0.09 0.07 0.06 0.07 0.07 0.07 0.05 0.05 0.04 0.03 0.02 0.02 0.01 0.01 0.01 0.01 0.01 0.01
0.00 0.00 0.00 0.01 0.01 0.03 0.04 0.06 0.06 0.05 0.05 0.05 0.05 0.04 0.05 0.04 0.04 0.05 0.04 0.03 0.04 0.06 0.09 0.12 0.15 0.12 0.08 0.08 0.09 0.08 0.07 0.06 0.05 0.04 0.03 0.02 0.01 0.01 0.01 0.01 0.01 0.01 0.01
0.00 0.00 0.00 0.00 0.01 0.03 0.03 0.04 0.05 0.05 0.05 0.06 0.07 0.06 0.05 0.04 0.05 0.07 0.07 0.06 0.04 0.05 0.07 0.10 0.13 0.12 0.09 0.09 0.10 0.09 0.07 0.06 0.06 0.05 0.04 0.03 0.02 0.02 0.01 0.01 0.01 0.01 0.01
0.00 0.00 0.00 0.00 0.01 0.01 0.02 0.03 0.03 0.04 0.05 0.05 0.06 0.06 0.05 0.04 0.05 0.06 0.08 0.09 0.05 0.05 0.05 0.08 0.11 0.10 0.10 0.10 0.11 0.10 0.09 0.07 0.06 0.05 0.05 0.04 0.03 0.02 0.01 0.01 0.01 0.00 0.00
0.01 0.00 0.00 0.00 0.00 0.01 0.01 0.02 0.03 0.03 0.04 0.05 0.05 0.06 0.06 0.04 0.06 0.08 0.09 0.08 0.07 0.06 0.05 0.05 0.06 0.06 0.08 0.10 0.11 0.15 0.11 0.07 0.06 0.04 0.04 0.03 0.03 0.02 0.02 0.01 0.02 0.01 0.01
0.01 0.01 0.01 0.00 0.01 0.01 0.01 0.02 0.03 0.04 0.05 0.05 0.06 0.07 0.07 0.06 0.05 0.06 0.07 0.06 0.06 0.07 0.07 0.06 0.05 0.04 0.05 0.07 0.09 0.12 0.14 0.08 0.07 0.05 0.04 0.04 0.04 0.02 0.02 0.02 0.02 0.02 0.01
0.01 0.01 0.01 0.01 0.01 0.01 0.01 0.01 0.02 0.03 0.05 0.06 0.06 0.09 0.08 0.08 0.06 0.04 0.05 0.06 0.06 0.08 0.08 0.07 0.05 0.03 0.03 0.04 0.03 0.07 0.13 0.12 0.07 0.06 0.06 0.05 0.04 0.03 0.02 0.02 0.02 0.02 0.01
0.01 0.01 0.01 0.00 0.00 0.01 0.01 0.02 0.02 0.03 0.04 0.06 0.07 0.10 0.08 0.06 0.07 0.05 0.04 0.05 0.07 0.07 0.08 0.08 0.06 0.04 0.03 0.03 0.03 0.05 0.07 0.09 0.10 0.07 0.07 0.07 0.05 0.03 0.02 0.02 0.02 0.01 0.01
0.01 0.00 0.00 0.00 0.00 0.00 0.01 0.02 0.02 0.01 0.03 0.04 0.06 0.08 0.08 0.06 0.07 0.08 0.05 0.05 0.08 0.08 0.08 0.07 0.05 0.06 0.05 0.04 0.04 0.04 0.05 0.06 0.12 0.10 0.09 0.09 0.06 0.04 0.03 0.03 0.03 0.02 0.01
0.00 0.00 0.00 0.00 0.00 0.00 0.00 0.00 0.01 0.01 0.01 0.02 0.04 0.06 0.08 0.06 0.06 0.08 0.07 0.06 0.06 0.06 0.08 0.08 0.07 0.06 0.05 0.05 0.05 0.03 0.04 0.05 0.07 0.10 0.11 0.11 0.09 0.05 0.04 0.03 0.03 0.02 0.02
0.00 0.00 0.00 0.00 0.00 0.00 0.00 0.00 0.00 0.00 0.01 0.01 0.03 0.04 0.05 0.04 0.04 0.06 0.06 0.05 0.05 0.05 0.06 0.07 0.07 0.07 0.06 0.06 0.07 0.06 0.05 0.04 0.04 0.06 0.08 0.11 0.14 0.10 0.06 0.04 0.03 0.03 0.03
0.00 0.00 0.00 0.00 0.00 0.00 0.00 0.00 0.00 0.00 0.01 0.02 0.02 0.03 0.03 0.03 0.04 0.05 0.05 0.05 0.04 0.04 0.04 0.05 0.05 0.07 0.06 0.06 0.07 0.10 0.07 0.05 0.05 0.06 0.06 0.06 0.10 0.13 0.13 0.10 0.07 0.05 0.04
0.00 0.00 0.00 0.00 0.00 0.00 0.00 0.00 0.00 0.00 0.00 0.01 0.02 0.02 0.02 0.03 0.03 0.03 0.04 0.06 0.05 0.04 0.03 0.04 0.04 0.04 0.05 0.06 0.08 0.11 0.08 0.08 0.06 0.07 0.07 0.06 0.06 0.08 0.11 0.12 0.13 0.11 0.08
0.00 0.00 0.00 0.00 0.00 0.00 0.00 0.00 0.00 0.00 0.00 0.01 0.01 0.01 0.02 0.02 0.02 0.03 0.03 0.05 0.05 0.04 0.02 0.03 0.04 0.04 0.04 0.05 0.08 0.10 0.08 0.09 0.09 0.08 0.07 0.06 0.06 0.06 0.06 0.08 0.09 0.11 0.12
0.00 0.00 0.00 0.00 0.00 0.00 0.00 0.00 0.00 0.00 0.00 0.00 0.01 0.01 0.01 0.01 0.02 0.02 0.03 0.04 0.05 0.04 0.03 0.02 0.03 0.04 0.05 0.05 0.05 0.07 0.09 0.11 0.10 0.08 0.08 0.07 0.06 0.05 0.05 0.05 0.05 0.06 0.07
0.00 0.00 0.00 0.00 0.01 0.01 0.00 0.00 0.00 0.00 0.00 0.00 0.00 0.01 0.01 0.01 0.01 0.02 0.02 0.03 0.03 0.04 0.03 0.02 0.02 0.03 0.04 0.05 0.05 0.05 0.07 0.09 0.08 0.09 0.08 0.08 0.07 0.06 0.06 0.05 0.04 0.04 0.04
0.00 0.00 0.00 0.00 0.01 0.01 0.01 0.01 0.00 0.00 0.00 0.01 0.00 0.00 0.01 0.01 0.01 0.01 0.02 0.03 0.03 0.03 0.04 0.03 0.03 0.03 0.03 0.04 0.06 0.06 0.07 0.09 0.08 0.08 0.09 0.08 0.08 0.07 0.06 0.06 0.05 0.04 0.03
0.00 0.00 0.00 0.00 0.00 0.00 0.00 0.01 0.00 0.00 0.00 0.00 0.01 0.01 0.01 0.01 0.01 0.01 0.02 0.03 0.03 0.04 0.03 0.03 0.03 0.02 0.02 0.03 0.07 0.08 0.08 0.09 0.10 0.10 0.09 0.08 0.08 0.08 0.07 0.07 0.06 0.05 0.04
0.00 0.00 0.00 0.00 0.00 0.00 0.00 0.00 0.00 0.00 0.00 0.00 0.00 0.01 0.01 0.02 0.02 0.02 0.02 0.02 0.02 0.03 0.04 0.03 0.03 0.03 0.02 0.03 0.05 0.08 0.09 0.08 0.09 0.10 0.11 0.10 0.08 0.09 0.08 0.08 0.07 0.06 0.05
0.00 0.00 0.00 0.00 0.00 0.00 0.00 0.01 0.00 0.01 0.01 0.00 0.01 0.00 0.00 0.01 0.01 0.02 0.02 0.01 0.01 0.01 0.02 0.03 0.03 0.03 0.02 0.02 0.02 0.04 0.07 0.09 0.09 0.10 0.11 0.11 0.11 0.09 0.08 0.07 0.07 0.06 0.05
0.00 0.00 0.00 0.00 0.00 0.00 0.01 0.02 0.01 0.01 0.01 0.01 0.01 0.01 0.01 0.01 0.02 0.02 0.02 0.01 0.01 0.01 0.02 0.02 0.03 0.03 0.02 0.02 0.02 0.03 0.05 0.08 0.09 0.07 0.09 0.10 0.13 0.11 0.08 0.07 0.07 0.07 0.07
0.00 0.00 0.00 0.00 0.00 0.00 0.01 0.01 0.01 0.01 0.01 0.01 0.01 0.01 0.02 0.03 0.02 0.01 0.01 0.02 0.02 0.02 0.02 0.02 0.03 0.02 0.02 0.02 0.03 0.03 0.03 0.05 0.06 0.09 0.10 0.09 0.11 0.12 0.11 0.10 0.09 0.08 0.09
0.00 0.00 0.00 0.00 0.00 0.00 0.00 0.00 0.00 0.00 0.00 0.01 0.01 0.02 0.03 0.02 0.01 0.02 0.01 0.01 0.01 0.01 0.01 0.02 0.02 0.02 0.02 0.03 0.04 0.04 0.05 0.08 0.08 0.10 0.15 0.13 0.09 0.09 0.10 0.12 0.13 0.10 0.09
0.00 0.00 0.00 0.00 0.00 0.00 0.00 0.00 0.00 0.00 0.00 0.00 0.01 0.01 0.02 0.01 0.01 0.02 0.01 0.01 0.00 0.00 0.00 0.00 0.01 0.02 0.02 0.03 0.04 0.05 0.05 0.06 0.09 0.09 0.11 0.13 0.11 0.11 0.12 0.13 0.13 0.14 0.13
0.00 0.00 0.00 0.00 0.00 0.00 0.00 0.00 0.00 0.00 0.00 0.00 0.00 0.01 0.02 0.02 0.01 0.01 0.01 0.01 0.00 0.00 0.00 0.00 0.00 0.02 0.02 0.02 0.03 0.03 0.04 0.05 0.06 0.07 0.08 0.10 0.11 0.12 0.14 0.13 0.13 0.14 0.16
MSLP
1013.23 1012.94 1012.64 1012.36 1012.15 1012.05 1012.05 1012.15 1012.32 1012.52 1012.70 1012.83 1012.90 1012.90 1012.84 1012.76 1012.66 1012.58 1012.52 1012.50 1012.52 1012.57 1012.67 1012.81 1012.98 1013.20 1013.46 1013.74 1014.05 1014.36 1014.67 1014.96 1015.24 1015.50 1015.77 1016.04 1016.32 1016.60 1016.89 1017.16 1017.40 1017.60 1017.76
1013.23 1012.90 1012.57 1012.27 1012.04 1011.91 1011.88 1011.96 1012.11 1012.29 1012.48 1012.64 1012.74 1012.78 1012.76 1012.70 1012.61 1012.52 1012.44 1012.39 1012.38 1012.42 1012.52 1012.67 1012.88 1013.13 1013.43 1013.74 1014.06 1014.38 1014.67 1014.96 1015.22 1015.49 1015.76 1016.04 1016.35 1016.66 1016.97 1017.26 1017.51 1017.73 1017.90
1013.14 1012.79 1012.45 1012.15 1011.91 1011.77 1011.73 1011.78 1011.91 1012.08 1012.27 1012.45 1012.58 1012.66 1012.69 1012.66 1012.60 1012.51 1012.42 1012.35 1012.31 1012.33 1012.41 1012.56 1012.78 1013.05 1013.36 1013.69 1014.02 1014.33 1014.62 1014.89 1015.15 1015.41 1015.68 1015.98 1016.30 1016.64 1016.97 1017.29 1017.57 1017.80 1017.98
1012.99 1012.64 1012.31 1012.02 1011.80 1011.66 1011.60 1011.63 1011.73 1011.88 1012.06 1012.25 1012.41 1012.53 1012.61 1012.63 1012.60 1012.53 1012.44 1012.35 1012.29 1012.27 1012.32 1012.45 1012.66 1012.93 1013.25 1013.58 1013.91 1014.22 1014.50 1014.77 1015.02 1015.27 1015.55 1015.86 1016.20 1016.56 1016.92 1017.26 1017.56 1017.81 1018.00
1012.84 1012.50 1012.19 1011.93 1011.73 1011.60 1011.53 1011.53 1011.59 1011.71 1011.86 1012.04 1012.22 1012.38 1012.51 1012.59 1012.61 1012.57 1012.49 1012.39 1012.30 1012.25 1012.27 1012.36 1012.54 1012.79 1013.09 1013.42 1013.75 1014.06 1014.34 1014.60 1014.85 1015.11 1015.40 1015.72 1016.07 1016.45 1016.82 1017.18 1017.49 1017.75 1017.96
1012.74 1012.42 1012.15 1011.93 1011.75 1011.62 1011.54 1011.49 1011.50 1011.56 1011.67 1011.82 1012.01 1012.20 1012.38 1012.52 1012.59 1012.60 1012.55 1012.45 1012.35 1012.27 1012.24 1012.29 1012.43 1012.65 1012.92 1013.24 1013.56 1013.86 1014.15 1014.42 1014.68 1014.95 1015.25 1015.58 1015.94 1016.32 1016.70 1017.06 1017.38 1017.65 1017.86
1012.76 1012.46 1012.23 1012.04 1011.88 1011.75 1011.64 1011.54 1011.48 1011.47 1011.52 1011.63 1011.81 1012.02 1012.24 1012.43 1012.57 1012.63 1012.61 1012.53 1012.41 1012.31 1012.24 1012.24 1012.33 1012.51 1012.76 1013.05 1013.36 1013.66 1013.96 1014.24 1014.52 1014.80 1015.11 1015.45 1015.82 1016.20 1016.58 1016.93 1017.25 1017.51 1017.73
1012.92 1012.65 1012.45 1012.28 1012.14 1011.99 1011.84 1011.69 1011.55 1011.46 1011.44 1011.50 1011.65 1011.87 1012.12 1012.36 1012.55 1012.66 1012.68 1012.61 1012.50 1012.37 1012.27 1012.22 1012.26 1012.40 1012.60 1012.86 1013.16 1013.46 1013.76 1014.06 1014.35 1014.65 1014.98 1015.32 1015.69 1016.07 1016.44 1016.78 1017.09 1017.35 1017.57
1013.22 1012.98 1012.80 1012.65 1012.51 1012.35 1012.15 1011.93 1011.72 1011.55 1011.46 1011.47 1011.59 1011.79 1012.06 1012.32 1012.55 1012.70 1012.75 1012.71 1012.59 1012.44 1012.31 1012.22 1012.21 1012.29 1012.46 1012.68 1012.95 1013.25 1013.54 1013.85 1014.15 1014.47 1014.80 1015.16 1015.53 1015.90 1016.26 1016.60 1016.90 1017.16 1017.38
1013.61 1013.39 1013.24 1013.10 1012.96 1012.77 1012.54 1012.27 1011.99 1011.75 1011.60 1011.56 1011.64 1011.82 1012.08 1012.36 1012.60 1012.77 1012.84 1012.80 1012.68 1012.51 1012.34 1012.22 1012.16 1012.19 1012.30 1012.49 1012.72 1012.99 1013.27 1013.57 1013.88 1014.20 1014.54 1014.90 1015.28 1015.65 1016.02 1016.35 1016.65 1016.92 1017.16
1014.01 1013.82 1013.68 1013.56 1013.41 1013.22 1012.96 1012.65 1012.34 1012.05 1011.85 1011.77 1011.81 1011.97 1012.21 1012.47 1012.71 1012.87 1012.93 1012.88 1012.75 1012.56 1012.37 1012.20 1012.10 1012.07 1012.13 1012.26 1012.44 1012.66 1012.91 1013.19 1013.48 1013.81 1014.15 1014.52 1014.91 1015.29 1015.67 1016.02 1016.34 1016.62 1016.88
1014.35 1014.19 1014.07 1013.96 1013.81 1013.62 1013.35 1013.04 1012.71 1012.42 1012.20 1012.09 1012.10 1012.23 1012.43 1012.66 1012.86 1012.99 1013.02 1012.96 1012.80 1012.59 1012.37 1012.17 1012.02 1011.94 1011.93 1011.99 1012.11 1012.27 1012.47 1012.70 1012.97 1013.28 1013.62 1014.00 1014.40 1014.81 1015.21 1015.59 1015.93 1016.25 1016.54
1014.57 1014.44 1014.34 1014.24 1014.11 1013.93 1013.68 1013.39 1013.09 1012.81 1012.59 1012.48 1012.47 1012.56 1012.71 1012.89 1013.04 1013.12 1013.11 1013.01 1012.83 1012.60 1012.35 1012.12 1011.93 1011.80 1011.73 1011.72 1011.76 1011.84 1011.97 1012.14 1012.36 1012.64 1012.97 1013.35 1013.77 1014.20 1014.64 1015.06 1015.45 1015.81 1016.14
1014.65 1014.55 1014.47 1014.38 1014.28 1014.12 1013.92 1013.67 1013.41 1013.17 1012.99 1012.88 1012.86 1012.92 1013.02 1013.13 1013.22 1013.24 1013.19 1013.05 1012.84 1012.59 1012.33 1012.08 1011.86 1011.69 1011.56 1011.48 1011.43 1011.43 1011.47 1011.56 1011.72 1011.95 1012.25 1012.62 1013.05 1013.51 1013.99 1014.45 1014.89 1015.30 1015.67
1014.61 1014.53 1014.47 1014.41 1014.32 1014.21 1014.05 1013.86 1013.66 1013.48 1013.33 1013.25 1013.22 1013.25 1013.30 1013.35 1013.37 1013.34 1013.23 1013.06 1012.84 1012.58 1012.32 1012.06 1011.83 1011.63 1011.45 1011.30 1011.17 1011.08 1011.02 1011.03 1011.11 1011.27 1011.53 1011.88 1012.31 1012.78 1013.29 1013.79 1014.27 1014.72 1015.14
1014.50 1014.43 1014.39 1014.34 1014.28 1014.21 1014.10 1013.97 1013.83 1013.70 1013.60 1013.53 1013.50 1013.50 1013.51 1013.50 1013.47 1013.38 1013.24 1013.04 1012.82 1012.57 1012.32 1012.08 1011.85 1011.63 1011.42 1011.22 1011.02 1010.84 1010.69 1010.60 1010.59 1010.68 1010.88 1011.19 1011.59 1012.06 1012.57 1013.10 1013.61 1014.10 1014.55
1014.36 1014.31 1014.27 1014.24 1014.20 1014.15 1014.08 1014.00 1013.91 1013.82 1013.75 1013.70 1013.66 1013.64 1013.61 1013.56 1013.47 1013.35 1013.18 1012.99 1012.78 1012.56 1012.34 1012.12 1011.91 1011.70 1011.47 1011.23 1010.97 1010.72 1010.48 1010.30 1010.20 1010.21 1010.33 1010.57 1010.92 1011.36 1011.85 1012.38 1012.90 1013.41 1013.89
1014.23 1014.19 1014.16 1014.13 1014.10 1014.07 1014.02 1013.96 1013.90 1013.84 1013.78 1013.73 1013.69 1013.64 1013.58 1013.50 1013.38 1013.24 1013.07 1012.89 1012.70 1012.51 1012.33 1012.16 1011.97 1011.77 1011.55 1011.28 1010.99 1010.68 1010.37 1010.11 1009.93 1009.84 1009.88 1010.04 1010.31 1010.69 1011.14 1011.63 1012.14 1012.65 1013.15
1014.11 1014.08 1014.05 1014.02 1014.00 1013.96 1013.91 1013.86 1013.80 1013.74 1013.68 1013.63 1013.57 1013.50 1013.42 1013.32 1013.19 1013.05 1012.89 1012.73 1012.57 1012.42 1012.28 1012.14 1011.99 1011.81 1011.58 1011.31 1011.00 1010.65 1010.30 1009.98 1009.71 1009.54 1009.49 1009.55 1009.74 1010.03 1010.41 1010.85 1011.33 1011.82 1012.32
1013.98 1013.95 1013.93 1013.90 1013.86 1013.81 1013.75 1013.68 1013.61 1013.53 1013.46 1013.39 1013.31 1013.24 1013.15 1013.04 1012.92 1012.78 1012.64 1012.50 1012.36 1012.24 1012.13 1012.02 1011.89 1011.72 1011.51 1011.25 1010.93 1010.56 1010.19 1009.82 1009.50 1009.26 1009.12 1009.09 1009.18 1009.37 1009.66 1010.03 1010.45 1010.92 1011.42
1013.79 1013.77 1013.75 1013.71 1013.66 1013.59 1013.50 1013.41 1013.30 1013.20 1013.11 1013.02 1012.94 1012.86 1012.77 1012.67 1012.56 1012.44 1012.32 1012.20 1012.08 1011.97 1011.87 1011.76 1011.63 1011.48 1011.27 1011.01 1010.70 1010.34 1009.96 1009.58 1009.22 1008.93 1008.72 1008.61 1008.61 1008.71 1008.91 1009.19 1009.55 1009.98 1010.47
1013.49 1013.49 1013.46 1013.42 1013.36 1013.26 1013.15 1013.02 1012.88 1012.76 1012.64 1012.55 1012.47 1012.39 1012.32 1012.25 1012.16 1012.06 1011.95 1011.83 1011.71 1011.59 1011.47 1011.35 1011.21 1011.04 1010.84 1010.59 1010.29 1009.95 1009.58 1009.21 1008.85 1008.54 1008.29 1008.12 1008.03 1008.05 1008.16 1008.37 1008.67 1009.05 1009.51
1013.09 1013.09 1013.07 1013.02 1012.94 1012.82 1012.68 1012.52 1012.36 1012.21 1012.09 1011.99 1011.92 1011.87 1011.83 1011.78 1011.72 1011.64 1011.54 1011.41 1011.28 1011.12 1010.97 1010.80 1010.63 1010.43 1010.21 1009.97 1009.69 1009.38 1009.05 1008.71 1008.37 1008.07 1007.80 1007.60 1007.47 1007.42 1007.47 1007.61 1007.85 1008.19 1008.62
1012.62 1012.62 1012.59 1012.53 1012.43 1012.29 1012.12 1011.94 1011.76 1011.60 1011.47 1011.39 1011.34 1011.32 1011.32 1011.30 1011.27 1011.21 1011.10 1010.96 1010.78 1010.58 1010.37 1010.14 1009.91 1009.68 1009.44 1009.19 1008.94 1008.66 1008.38 1008.09 1007.80 1007.53 1007.29 1007.09 1006.94 1006.86 1006.86 1006.95 1007.14 1007.44 1007.83
1012.15 1012.13 1012.10 1012.02 1011.89 1011.73 1011.53 1011.32 1011.13 1010.96 1010.84 1010.78 1010.76 1010.77 1010.80 1010.82 1010.82 1010.76 1010.64 1010.47 1010.25 1009.99 1009.71 1009.42 1009.13 1008.85 1008.58 1008.33 1008.09 1007.86 1007.63 1007.40 1007.18 1006.96 1006.76 1006.59 1006.45 1006.37 1006.35 1006.42 1006.57 1006.82 1007.17
1011.77 1011.74 1011.68 1011.57 1011.42 1011.22 1010.99 1010.75 1010.54 1010.36 1010.25 1010.20 1010.20 1010.25 1010.31 1010.36 1010.36 1010.31 1010.18 1009.98 1009.71 1009.39 1009.04 1008.67 1008.32 1007.99 1007.70 1007.44 1007.22 1007.02 1006.84 1006.68 1006.52 1006.37 1006.23 1006.10 1006.00 1005.93 1005.92 1005.97 1006.11 1006.32 1006.63
Thickness
5689 5691 5693 5696 5699 5702 5706 5709 5712 5714 5717 5720 5723 5725 5729 5732 5735 5738 5740 5742 5744 5746 5747 5748 5748 5748 5748 5749 5749 5749 5749 5749 5749 5749 5748 5748 5748 5748 5748 5748 5747 5747 5747
5683 5685 5687 5689 5693 5696 5700 5703 5706 5709 5713 5716 5719 5722 5726 5729 5732 5735 5738 5741 5743 5745 5746 5747 5747 5747 5747 5748 5748 5748 5748 5748 5748 5747 5747 5747 5747 5747 5746 5746 5746 5746 5746
5677 5679 5680 5683 5687 5690 5694 5697 5700 5704 5707 5711 5715 5719 5723 5726 5730 5733 5736 5739 5741 5744 5745 5746 5746 5747 5746 5747 5747 5747 5747 5747 5746 5746 5746 5746 5745 5745 5745 5745 5744 5744 5744
5672 5673 5675 5677 5681 5684 5688 5691 5694 5697 5701 5705 5709 5714 5719 5723 5727 5730 5733 5736 5739 5742 5744 5745 5745 5746 5746 5746 5746 5746 5746 5746 5745 5745 5745 5744 5744 5744 5743 5743 5743 5743 5742
5668 5669 5670 5672 5676 5679 5682 5686 5689 5692 5695 5699 5704 5710 5715 5719 5723 5727 5730 5733 5736 5739 5741 5743 5744 5744 5745 5745 5745 5745 5745 5745 5744 5744 5744 5743 5743 5742 5742 5742 5742 5741 5741
5666 5666 5667 5668 5671 5673 5676 5680 5683 5687 5690 5695 5700 5705 5710 5715 5719 5722 5726 5729 5732 5735 5738 5740 5741 5742 5743 5744 5744 5744 5744 5744 5743 5743 5743 5742 5742 5741 5741 5741 5740 5740 5740
5663 5663 5663 5664 5666 5668 5671 5674 5678 5681 5685 5689 5692 5696 5703 5709 5713 5718 5722 5725 5728 5732 5734 5737 5738 5740 5741 5742 5743 5743 5743 5743 5742 5742 5742 5741 5741 5741 5740 5740 5739 5739 5738
5661 5661 5660 5661 5663 5664 5667 5670 5672 5675 5679 5684 5686 5687 5691 5697 5706 5713 5716 5720 5724 5727 5730 5733 5735 5737 5739 5740 5742 5742 5742 5742 5742 5741 5741 5741 5740 5740 5739 5739 5738 5738 5737
5660 5659 5659 5659 5660 5661 5663 5666 5668 5670 5673 5677 5682 5683 5684 5687 5694 5703 5710 5715 5719 5722 5726 5729 5732 5734 5736 5738 5739 5741 5741 5741 5741 5741 5740 5740 5739 5739 5738 5738 5737 5737 5736
5659 5659 5658 5658 5658 5659 5660 5663 5665 5667 5669 5671 5676 5680 5683 5686 5687 5691 5700 5707 5712 5717 5721 5725 5729 5731 5733 5735 5737 5738 5739 5740 5740 5740 5740 5739 5739 5738 5737 5737 5736 5735 5735
5659 5658 5658 5658 5657 5658 5658 5660 5662 5663 5665 5667 5670 5673 5677 5680 5684 5685 5688 5695 5703 5710 5716 5720 5724 5727 5730 5732 5734 5736 5737 5738 5739 5739 5739 5739 5738 5737 5736 5735 5735 5734 5734
5658 5658 5658 5657 5657 5656 5656 5657 5659 5660 5662 5663 5666 5668 5671 5674 5677 5679 5682 5687 5692 5701 5709 5715 5719 5723 5726 5728 5731 5733 5734 5736 5737 5738 5737 5737 5737 5736 5736 5735 5734 5733 5732
5656 5656 5656 5656 5655 5655 5655 5655 5656 5657 5658 5659 5661 5663 5667 5670 5673 5675 5677 5680 5685 5692 5700 5708 5714 5718 5721 5724 5727 5729 5731 5733 5734 5735 5736 5735 5735 5735 5734 5734 5733 5732 5731
5656 5656 5655 5655 5654 5654 5653 5653 5653 5653 5655 5655 5657 5659 5662 5665 5668 5671 5672 5674 5677 5682 5690 5698 5707 5712 5716 5719 5722 5725 5727 5730 5731 5732 5733 5734 5734 5733 5733 5732 5731 5731 5730
5658 5656 5655 5654 5653 5652 5651 5650 5650 5650 5651 5651 5653 5655 5657 5660 5663 5665 5668 5670 5671 5673 5679 5689 5696 5704 5709 5713 5716 5719 5723 5725 5727 5729 5730 5731 5731 5731 5731 5731 5730 5729 5728
5658 5656 5655 5653 5651 5650 5649 5648 5647 5647 5647 5647 5648 5650 5652 5654 5656 5659 5662 5665 5667 5669 5672 5681 5688 5695 5700 5706 5709 5713 5717 5720 5722 5725 5726 5727 5728 5728 5729 5728 5728 5727 5726
5658 5656 5654 5652 5650 5649 5647 5646 5645 5644 5643 5643 5644 5645 5647 5649 5650 5653 5655 5658 5661 5663 5666 5673 5679 5686 5692 5697 5702 5706 5710 5714 5717 5719 5721 5723 5724 5725 5725 5725 5725 5724 5723
5659 5656 5654 5651 5649 5648 5646 5644 5643 5641 5640 5639 5640 5641 5642 5644 5645 5647 5649 5652 5655 5658 5661 5665 5671 5677 5683 5689 5695 5699 5703 5707 5711 5714 5716 5718 5720 5721 5722 5722 5721 5721 5720
5659 5656 5653 5651 5649 5647 5645 5644 5641 5639 5637 5636 5636 5637 5639 5640 5641 5642 5644 5647 5649 5652 5656 5659 5664 5669 5675 5681 5686 5691 5696 5700 5704 5707 5710 5712 5714 5716 5717 5717 5717 5717 5717
5659 5656 5653 5651 5649 5647 5645 5643 5641 5638 5636 5635 5635 5635 5636 5637 5638 5640 5641 5643 5645 5647 5650 5653 5657 5662 5667 5673 5677 5681 5686 5691 5696 5700 5704 5707 5709 5710 5711 5712 5713 5712 5712
5660 5657 5654 5651 5649 5647 5646 5644 5641 5638 5636 5635 5634 5635 5636 5637 5639 5639 5640 5641 5642 5643 5645 5648 5652 5655 5660 5664 5669 5673 5677 5682 5687 5692 5695 5699 5702 5704 5705 5706 5707 5707 5707
5660 5657 5654 5651 5649 5648 5647 5646 5643 5639 5636 5635 5634 5635 5636 5637 5638 5639 5640 5641 5641 5641 5642 5644 5647 5650 5654 5659 5663 5666 5669 5673 5677 5684 5686 5690 5693 5696 5699 5700 5701 5701 5702
5660 5657 5654 5652 5649 5648 5647 5646 5644 5640 5637 5635 5634 5634 5635 5636 5636 5636 5637 5639 5640 5641 5642 5642 5644 5647 5650 5654 5657 5660 5663 5666 5670 5676 5677 5681 5685 5688 5691 5692 5694 5694 5695
5659 5656 5654 5652 5650 5649 5649 5647 5645 5641 5638 5636 5635 5634 5633 5634 5634 5635 5635 5636 5636 5638 5639 5641 5642 5644 5647 5649 5652 5655 5658 5660 5664 5667 5670 5672 5677 5679 5683 5685 5686 5688 5689
5659 5656 5654 5652 5649 5649 5648 5647 5645 5641 5638 5637 5636 5635 5634 5633 5634 5634 5633 5633 5634 5636 5638 5639 5640 5642 5644 5646 5648 5648 5650 5652 5655 5659 5662 5664 5668 5670 5674 5677 5679 5681 5682
5657 5655 5653 5651 5648 5647 5647 5646 5644 5640 5637 5636 5635 5635 5634 5634 5634 5633 5632 5632 5633 5634 5635 5636 5637 5639 5641 5642 5643 5644 5645 5646 5649 5652 5656 5657 5660 5660 5663 5669 5671 5673 5674